Regional Weather Roundup
Issued by NWS Goodland, KS

Home | Current Version | Previous Version | Graphics & Text | Print | Product List | Glossary On
Versions: 1 2 3 4 5 6 7 8 9 10 11 12 13 14 15 16 17 18 19 20 21 22 23 24 25 26 27 28 29 30 31 32 33 34 35 36 37 38 39 40 41 42 43 44 45 46 47 48 49 50
000
ASUS43 KGLD 261159
RWRGLD

GOODLAND FORECAST AREA HOURLY WEATHER ROUNDUP
NATIONAL WEATHER SERVICE GOODLAND KS
600 AM MDT THU MAY 26 2016

...OFFICIAL OBSERVATIONS...

CITY           SKY/WX    TMP DP  RH WIND       PRES   REMARKS
GOODLAND KS    CLEAR     51  46  83 NE6       29.89F
HILL CITY KS   CLOUDY    56  51  84 N15       29.86R
IMPERIAL NEB   CLOUDY    53  49  86 CALM      29.91F
MCCOOK NEB     CLOUDY    51  49  92 W3        29.91S
AKRON CO       CLOUDY    49  43  80 NW13      29.96F
BURLINGTON CO  CLEAR     51  43  74 N5        29.93R
LIMON CO       CLOUDY    51  48  89 NW5       29.99S
$$

...UNOFFICIAL OBSERVATIONS...

CITY           SKY/WX    TMP DP  RH WIND       PRES   REMARKS
GOVE KS          N/A     58  32  37 MISG        N/A
LENORA KS        N/A     51  32  48 MISG        N/A
SHARON SPRINGS   N/A     53  49  87 NE8         N/A
KIT CARSON CO    N/A     50  43  78 MISG        N/A
YUMA CO          N/A     54  46  75 CALM        N/A
$$



USA.gov is the U.S. government's official web portal to all federal, state and local government web resources and services.